CST,Max TemperatureF,Mean TemperatureF,Min TemperatureF,Max Dew PointF,MeanDew PointF,Min DewpointF,Max Humidity, Mean Humidity, Min Humidity, Max Sea Level PressureIn, Mean Sea Level PressureIn, Min Sea Level PressureIn, Max VisibilityMiles, Mean VisibilityMiles, Min VisibilityMiles, Max Wind SpeedMPH, Mean Wind SpeedMPH, Max Gust SpeedMPH,PrecipitationIn, CloudCover, Events, WindDirDegrees
2013-1-1,55,46,36,53,42,29,96,85,61,30.27,30.13,29.98,10,6,1,15,8,23,0.00,6,Rain,14
2013-1-2,44,36,28,27,25,24,82,67,45,30.36,30.31,30.26,10,9,8,12,7,,0.00,0,,359
2013-1-3,44,36,28,28,26,22,82,63,51,30.47,30.42,30.35,10,10,8,13,5,18,0.00,7,,17
2013-1-4,41,37,33,37,34,27,96,88,57,30.53,30.46,30.39,10,7,1,8,4,,0.09,8,Rain-Snow,58
2013-1-5,54,44,34,39,36,32,93,81,53,30.40,30.32,30.23,10,10,7,9,2,,0.00,4,Rain,265
2013-1-6,57,44,32,31,28,26,92,60,30,30.43,30.35,30.31,10,10,9,14,5,21,0.00,0,,1
2013-1-7,54,43,32,37,30,25,75,59,41,30.33,30.22,30.07,10,10,10,9,5,,0.00,2,,81
2013-1-8,50,47,44,49,46,37,97,93,66,30.07,29.98,29.91,10,3,0,15,7,20,1.16,8,Fog-Rain-Thunderstorm,35
2013-1-9,57,54,50,54,52,48,97,92,87,30.04,29.99,29.87,10,4,0,21,10,34,0.69,8,Fog-Rain,2
2013-1-10,60,52,45,49,45,39,100,83,53,30.04,30.01,29.97,10,6,0,18,4,32,0.00,4,Fog,242
2013-1-11,72,57,42,62,51,39,90,77,55,30.01,29.89,29.81,10,9,6,17,6,26,0.00,3,,175
2013-1-12,73,59,43,66,60,30,100,85,52,29.88,29.77,29.65,10,5,0,17,6,25,0.00,7,Fog-Rain,173
2013-1-13,48,42,34,30,25,20,68,54,38,30.21,30.12,29.95,10,10,10,16,12,25,0.00,3,,358
2013-1-14,46,38,30,26,23,19,64,57,39,30.27,30.21,30.13,10,10,10,16,12,24,0.00,3,,31
2013-1-15,37,35,33,32,29,20,92,80,59,30.27,30.17,30.12,10,8,2,16,10,23,0.00,7,Rain,360
2013-1-16,50,38,26,23,18,8,72,53,19,30.36,30.28,30.20,10,10,10,15,7,23,0.00,0,,302
2013-1-17,64,47,30,32,29,24,76,53,27,30.50,30.43,30.31,10,10,10,13,5,22,0.00,0,,348
2013-1-18,62,47,32,33,30,27,82,54,26,30.52,30.42,30.32,10,10,10,12,5,,0.00,0,,123
2013-1-19,66,52,39,45,39,32,93,67,37,30.31,30.23,30.15,10,10,5,15,5,22,0.00,0,,197
2013-1-20,71,54,37,43,38,34,86,61,29,30.25,30.17,30.09,10,10,10,9,2,,0.00,0,,237
2013-1-21,66,54,41,43,39,34,86,61,37,30.26,30.20,30.13,10,10,10,9,3,,0.00,0,,51
2013-1-22,70,54,39,47,41,33,80,61,44,30.31,30.24,30.19,10,10,9,13,5,21,0.00,1,,143
2013-1-23,72,58,44,54,49,42,96,80,51,30.34,30.27,30.19,10,7,0,14,3,20,0.00,2,Fog,192
2013-1-24,81,66,51,59,54,48,100,80,38,30.26,30.19,30.08,10,6,0,12,4,18,0.00,3,Fog,201
2013-1-25,80,66,48,59,54,42,100,79,40,30.16,30.09,30.02,10,6,0,15,5,,0.00,0,Fog,199
2013-1-26,61,54,46,55,48,42,97,86,74,30.21,30.15,30.08,8,4,1,8,5,,0.00,7,,60
2013-1-27,75,67,59,63,58,55,94,82,55,30.11,30.04,29.94,10,10,6,18,11,30,0.00,7,,172
2013-1-28,77,72,66,65,63,61,88,79,58,30.04,29.95,29.85,10,9,7,22,11,32,0.00,8,Rain,169
2013-1-29,78,66,53,65,53,17,90,67,24,29.84,29.70,29.51,10,8,3,25,16,37,0.09,6,Rain-Thunderstorm,210
2013-1-30,55,44,33,27,18,8,66,33,16,30.22,30.03,29.78,10,10,7,24,14,37,0.00,1,,301
2013-1-31,66,47,28,27,21,16,72,41,15,30.28,30.23,30.17,10,10,10,14,3,22,0.00,0,,203